EW5923 Weather Reports


Display with metric or nautical units.
time (UTC)temp
F
wind
direction
speed
MPH
gust
MPH
rain 1hr
in
rain 24hr
in
rain mn
in
humidity
%
barometer
mb
20260506113122 52 347 2.0 3.0 0.00 0.00 0.00 53 1014.3
20260506112122 53 360 1.0 2.0 0.00 0.00 0.00 53 1014.1
20260506111122 54 345 0.0 1.0 0.00 0.00 0.00 52 1014.1
20260506110122 53 349 2.0 3.0 0.00 0.00 0.00 52 1014.0
20260506105122 53 360 2.0 3.0 0.00 0.00 0.00 53 1014.1
20260506104122 53 360 3.0 3.0 0.00 0.00 0.00 51 1013.9
20260506103122 54 360 3.0 3.0 0.00 0.00 0.00 50 1013.8
20260506102122 54 360 1.0 2.0 0.00 0.00 0.00 49 1013.7
20260506101122 54 360 2.0 2.0 0.00 0.00 0.00 49 1013.6
20260506100143 54 360 2.0 2.0 0.00 0.00 0.00 49 1013.5
20260506095143 55 360 2.0 3.0 0.00 0.00 0.00 49 1013.4
20260506094143 55 360 2.0 3.0 0.00 0.00 0.00 49 1013.5
20260506093122 55 355 2.0 3.0 0.00 0.00 0.00 48 1013.5
20260506092122 56 360 1.0 2.0 0.00 0.00 0.00 47 1013.4
20260506091143 56 360 1.0 2.0 0.00 0.00 0.00 46 1013.3
20260506090122 56 360 2.0 3.0 0.00 0.00 0.00 47 1013.2
20260506085122 56 360 0.0 0.0 0.00 0.00 0.00 45 1013.3
20260506084122 57 360 1.0 2.0 0.00 0.00 0.00 44 1013.2
20260506083122 57 359 2.0 3.0 0.00 0.00 0.00 45 1013.2
20260506082122 57 353 2.0 3.0 0.00 0.00 0.00 44 1013.2
20260506081122 57 360 1.0 2.0 0.00 0.00 0.00 43 1013.1
20260506080123 57 360 2.0 3.0 0.00 0.00 0.00 43 1013.0
20260506073143 58 358 2.0 3.0 0.00 0.00 0.00 41 1013.1
20260506072122 59 360 3.0 4.0 0.00 0.00 0.00 41 1013.1
20260506071143 58 360 3.0 4.0 0.00 0.00 0.00 41 1012.9
20260506070122 58 360 2.0 3.0 0.00 0.00 0.00 41 1012.9
20260506062123 62 360 2.0 4.0 0.00 0.00 0.00 37 1012.7
20260506061122 61 360 3.0 4.0 0.00 0.00 0.00 37 1012.8
20260506060121 60 360 2.0 3.0 0.00 0.00 0.00 38 1012.8
20260506051122 63 360 1.0 2.0 0.00 0.00 0.00 34 1012.5
20260506050121 64 355 2.0 3.0 0.00 0.00 0.00 33 1012.3
20260506045121 65 360 2.0 3.0 0.00 0.00 0.00 32 1012.1
20260506044121 66 360 2.0 4.0 0.00 0.00 0.00 32 1012.1
20260506043121 67 360 2.0 4.0 0.00 0.00 0.00 31 1012.0
20260506042143 68 359 4.0 6.0 0.00 0.00 0.00 30 1011.9
20260506041121 69 360 4.0 8.0 0.00 0.00 0.00 29 1011.9
20260506040121 69 358 4.0 6.0 0.00 0.00 0.00 29 1011.8
20260506035121 69 358 3.0 6.0 0.00 0.00 0.00 29 1011.5
20260506034121 70 357 3.0 6.0 0.00 0.00 0.00 29 1011.5
20260506033121 70 358 4.0 8.0 0.00 0.00 0.00 29 1011.4
20260506032121 70 358 6.0 11.0 0.00 0.00 0.00 29 1011.2
20260506031142 71 356 6.0 12.0 0.00 0.00 0.00 28 1011.0
20260506030122 71 359 7.0 11.0 0.00 0.00 0.00 28 1010.9
20260506025121 71 359 8.0 13.0 0.00 0.00 0.00 28 1010.7
20260506024121 72 358 9.0 15.0 0.00 0.00 0.00 27 1010.6
20260506023121 72 358 10.0 14.0 0.00 0.00 0.00 27 1010.6
20260506022123 72 359 7.0 14.0 0.00 0.00 0.00 26 1010.3
20260506021122 72 358 9.0 13.0 0.00 0.00 0.00 26 1010.1
20260506020144 73 360 9.0 14.0 0.00 0.00 0.00 27 1010.0
20260506015122 73 360 11.0 15.0 0.00 0.00 0.00 26 1010.1
20260506014122 73 359 8.0 14.0 0.00 0.00 0.00 27 1009.9
20260506013122 73 360 7.0 14.0 0.00 0.00 0.00 27 1009.8
20260506012123 74 360 7.0 17.0 0.00 0.00 0.00 27 1009.7
20260506011123 74 360 10.0 20.0 0.00 0.00 0.00 27 1009.7
20260506010122 73 358 5.0 12.0 0.00 0.00 0.00 27 1009.4
20260506005122 73 359 10.0 17.0 0.00 0.00 0.00 27 1009.6
20260506004122 74 358 10.0 20.0 0.00 0.00 0.00 25 1009.5
20260506003143 75 354 8.0 17.0 0.00 0.00 0.00 26 1009.3
20260506002122 74 360 11.0 17.0 0.00 0.00 0.00 26 1009.3
20260506001122 75 359 12.0 19.0 0.00 0.00 0.00 26 1009.3
20260506000122 75 359 12.0 19.0 0.00 0.00 0.00 26 1009.2
20260505235122 74 359 11.0 20.0 0.00 0.00 0.00 27 1009.2
20260505234143 75 356 8.0 14.0 0.00 0.00 0.00 26 1009.0
20260505233122 75 359 12.0 17.0 0.00 0.00 0.00 26 1009.0
20260505232122 76 359 7.0 12.0 0.00 0.00 0.00 27 1008.8
20260505231143 77 359 10.0 16.0 0.00 0.00 0.00 25 1008.9
20260505230122 76 360 12.0 18.0 0.00 0.00 0.00 25 1008.9
20260505225122 77 357 13.0 21.0 0.00 0.00 0.00 25 1009.0
20260505224122 77 360 10.0 19.0 0.00 0.00 0.00 25 1008.9
20260505223143 76 359 12.0 22.0 0.00 0.00 0.00 26 1009.2
20260505222122 76 360 9.0 18.0 0.00 0.00 0.00 27 1009.2
20260505221121 76 359 11.0 19.0 0.00 0.00 0.00 28 1009.4
20260505220142 75 359 10.0 14.0 0.00 0.00 0.00 30 1009.4
20260505215121 77 360 11.0 20.0 0.00 0.00 0.00 29 1009.3
20260505214142 76 359 12.0 20.0 0.00 0.00 0.00 30 1009.5
20260505213121 74 360 10.0 17.0 0.00 0.00 0.00 32 1009.6
20260505212121 76 360 9.0 14.0 0.00 0.00 0.00 31 1009.7
20260505211121 74 358 5.0 11.0 0.00 0.00 0.00 35 1009.9
20260505210122 75 359 10.0 20.0 0.00 0.00 0.00 34 1010.0
20260505205121 76 359 12.0 17.0 0.00 0.00 0.00 33 1010.1
20260505204121 75 359 8.0 13.0 0.00 0.00 0.00 36 1010.2
20260505203142 74 359 11.0 16.0 0.00 0.00 0.00 37 1010.3
20260505202121 75 358 7.0 13.0 0.00 0.00 0.00 37 1010.3
20260505201122 73 360 9.0 14.0 0.00 0.00 0.00 39 1010.4
20260505200121 73 359 9.0 16.0 0.00 0.00 0.00 39 1010.4
20260505195121 75 359 8.0 15.0 0.00 0.00 0.00 37 1010.4
20260505194121 74 357 11.0 19.0 0.00 0.00 0.00 38 1010.5
20260505193122 73 359 9.0 15.0 0.00 0.00 0.00 39 1010.6
20260505192143 74 359 9.0 15.0 0.00 0.00 0.00 39 1010.8
20260505191142 73 359 9.0 17.0 0.00 0.00 0.00 40 1010.8
20260505190121 72 358 8.0 19.0 0.00 0.00 0.00 42 1011.1
20260505185142 72 360 11.0 18.0 0.00 0.00 0.00 42 1011.2
20260505184122 72 359 7.0 16.0 0.00 0.00 0.00 42 1011.1
20260505183121 70 359 9.0 15.0 0.00 0.00 0.00 43 1011.3
20260505182121 72 360 7.0 12.0 0.00 0.00 0.00 46 1011.2
20260505181123 71 360 11.0 18.0 0.00 0.00 0.00 47 1011.3
20260505180121 70 360 8.0 13.0 0.00 0.00 0.00 49 1011.3
20260505175121 70 359 10.0 17.0 0.00 0.00 0.00 49 1011.3
20260505174121 70 360 8.0 13.0 0.00 0.00 0.00 52 1011.3
20260505173121 69 360 8.0 13.0 0.00 0.00 0.00 53 1011.2
20260505172121 69 359 7.0 13.0 0.00 0.00 0.00 54 1011.2
20260505171142 69 360 7.0 14.0 0.00 0.00 0.00 54 1011.2
20260505170121 69 357 5.0 11.0 0.00 0.00 0.00 55 1011.1
20260505165121 68 357 8.0 13.0 0.00 0.00 0.00 58 1011.2
20260505164121 68 360 8.0 12.0 0.00 0.00 0.00 60 1011.2
20260505163123 67 360 9.0 14.0 0.00 0.00 0.00 63 1011.3
20260505162142 67 359 6.0 10.0 0.00 0.00 0.00 65 1011.3
20260505161121 67 357 4.0 9.0 0.00 0.00 0.00 64 1011.2
20260505160121 67 351 2.0 5.0 0.00 0.00 0.00 65 1011.3
20260505153121 66 3 4.0 8.0 0.00 0.00 0.00 69 1011.0
20260505152122 66 11 5.0 9.0 0.00 0.00 0.00 73 1011.1
20260505151122 64 6 4.0 6.0 0.00 0.00 0.00 75 1011.0
20260505150122 64 2 4.0 8.0 0.00 0.00 0.00 75 1011.0
20260505140123 63 23 3.0 6.0 0.00 0.00 0.00 79 1010.9
20260505130142 63 11 4.0 6.0 0.00 0.00 0.00 76 1010.4
20260505124122 63 17 3.0 6.0 0.00 0.00 0.00 76 1010.3
20260505123122 62 7 4.0 6.0 0.00 0.00 0.00 77 1010.2
20260505122122 62 4 4.0 8.0 0.00 0.00 0.00 78 1010.1
20260505121144 62 360 1.0 2.0 0.00 0.00 0.00 78 1010.1
20260505120121 62 13 2.0 4.0 0.00 0.00 0.00 77 1010.0
20260505115122 62 16 3.0 6.0 0.00 0.00 0.00 76 1009.9
20260505114142 62 6 4.0 9.0 0.00 0.00 0.00 77 1009.8